[Date Prev][Date Next][Thread Prev][Thread Next] - [Date Index][Thread Index][Author Index]

2 Line ISS Keps 11-7



ISS
1 25544U 98067A   02311.17074316  .00047603  00000-0  61737-3 0  3458
2 25544  51.6395  55.0558 0014320 111.3394 332.0534 15.58248857226273


----
Via the sarex mailing list at AMSAT.ORG courtesy of AMSAT-NA.
To unsubscribe, send "unsubscribe sarex" to Majordomo@amsat.org



AMSAT Top AMSAT Home